Location: Boiro
(42.6475°N, 8.8834°W)
Time: 06:42:05
(UTC+01:00)

RS-44 - Visible Passes

Search period start: 27 January 2022 00:00
Search period end: 06 February 2022 00:00
Orbit: 1175 x 1510 km, 82.5° (Epoch: 26 January)

Date Brightness Start Highest point End Pass type
(mag) Time Alt. Az. Time Alt. Az. Time Alt. Az.
03 Feb ? 00:25:25 10° N 00:25:30 10° N 00:25:30 10° N visible
04 Feb ? 00:49:03 10° N 00:49:16 11° N 00:49:16 11° N visible
05 Feb ? 01:12:51 10° N 01:13:02 11° N 01:13:02 11° N visible
05 Feb ? 23:43:48 10° N 23:44:12 11° N 23:44:12 11° N visible
